Home > Weather > Montfoort > Past weeks

Flag for Netherlands Past Weather in Montfoort, Netherlands — Yesterday and Last 2 Weeks

Now
70 °F

Fog.


Feels Like: 65 °F
Forecast: 65 / 76 °F
Wind: 2 mph from Northwest

Location: De Bilt

Current Time: Aug 28, 2016 at 12:31:59 AM

Latest Report: Aug 27, 2016 at 11:00 PM


Visibility: 8 mi

Pressure: 29.91 "Hg

Humidity: 95%

Dew Point: 69 °F

Location of MontfoortLocation

Past Weather in Montfoort — Graph

°F

Montfoort Temperature Yesterday

Maximum temperature yesterday: 80 °F (at 3:00 PM)
Minimum temperature yesterday: 61 °F (at 6:00 AM)
Average temperature yesterday: 70 °F

High & Low Weather Summary for the Past Weeks

 TemperatureHumidityPressure
High87 °F (Aug 25, 5:00 PM)100% (Aug 14, 12:00 AM)30.32 "Hg (Aug 14, 12:00 AM)
Low47 °F (Aug 15, 5:00 AM)37% (Aug 17, 4:00 PM)29.75 "Hg (Aug 19, 8:00 PM)
Average66 °F77%30.06 "Hg
* Reported Aug 12 11:00 PM — Aug 27 11:00 PM, Montfoort, Weather by CustomWeather, © 2016

Note: Actual official high and low records may vary slightly from our data, if they occured in-between our weather recording intervals... More about our weather records

Advertising

Montfoort Weather History for the Previous 24 Hours

Scroll right to see more
 ConditionsComfort  
Time TempWeatherWind HumidityBarometerVisibility
11:00 PM
Sat, Aug 27
70 °FFog.2 mph95%29.91 "Hg8 mi
10:00 PM72 °FOvercast.2 mph87%29.91 "Hg16 mi
9:00 PM76 °FRain. Overcast.5 mph68%29.92 "Hg19 mi
8:00 PM77 °FOvercast.3 mph66%29.93 "Hg28 mi
7:00 PM79 °FOvercast.6 mph62%29.95 "Hg17 mi
6:00 PM79 °FOvercast.6 mph62%29.97 "Hg25 mi
5:00 PM78 °FOvercast.6 mph58%29.99 "Hg25 mi
4:00 PM78 °FOvercast.6 mph59%30.02 "Hg25 mi
3:00 PM80 °FFog.6 mph56%30.04 "Hg19 mi
2:00 PM78 °FSunny.6 mph54%30.06 "Hg22 mi
1:00 PM76 °FSunny.6 mph56%30.08 "Hg19 mi
12:00 PM74 °FSunny.6 mph54%30.09 "Hg22 mi
11:00 AM71 °FOvercast.6 mph56%30.11 "Hg22 mi
10:00 AM68 °FOvercast.5 mph72%30.12 "Hg19 mi
9:00 AM65 °FOvercast.3 mph86%30.12 "Hg12 mi
8:00 AM62 °FPartly sunny.3 mph94%30.12 "Hg7 mi
7:00 AM61 °FFog.2 mph96%30.13 "Hg6 mi
6:00 AM61 °FFog.2 mph97%30.13 "Hg6 mi
5:00 AM62 °FOvercast.3 mph94%30.13 "Hg6 mi
4:00 AM62 °FOvercast.3 mph95%30.14 "Hg7 mi
3:00 AM63 °FPassing clouds.3 mph91%30.13 "Hg9 mi
2:00 AM64 °FOvercast.2 mph90%30.13 "Hg15 mi
1:00 AM65 °FOvercast.3 mph89%30.13 "Hg22 mi
12:00 AM66 °FOvercast.3 mph85%30.13 "Hg28 mi
Weather by CustomWeather, © 2016

See weather overviewHow to use our weather pages